classement 20 km des 19ème Hivernales 7/2/99

rang nom temps groupe club catégorie doss.
1 FAYS GUY 1:2:27   RFCL SEN 1 1751
2 ELMKABLI DRISS 1:3:6 MAROC RCB SEN 2 1480
3 LONCAR FREDDY 1:4:57 RRHUY   SEN 3 1663
4 ROTO PEKKA 1:5:45 FINLANDE   SEN 4 1757
5 DEMOL GUY 1:6:7 JOGGING + EXC VE1 1 1157
6 BREYNAERT GEERT 1:6:27 RONSA ASSA   SEN 5 436
7 SMITH MATHEW 1:6:30 REEBOK   SEN 6 1364
8 MLECZKO OLIVIER 1:6:45 JOGGING +   SEN 7 13
9 VANDERLINDEN MARC 1:6:56 TRAINING 7 CSF VE1 2 1295
10 BERTELS MARC 1:8:29 SP LEUVEN HERA VE1 3 1678
11 FLAMEE ALAIN 1:8:41 TRAINING 7   SEN 8 142
12 HOWET VINCENT 1:9:13     SEN 9 1314
13 PLASQUI MICHEL 1:9:32 LDLV   SEN 10 1022
14 MOLEMANS LUC 1:9:50 GET TO 25   SEN 11 78
15 TIMMERMANS MARC 1:9:57 TECHNISPOR RIWA SEN 12 1458
16 CLAISSE JOEL 1:10:18 TRI ATH   SEN 13 569
17 RECOUR LAURENT 1:10:21 TRAINING 7 DACM SEN 14 446
18 DE SCHIJVER ERIC 1:10:46     SEN 15 1227
19 VAN CUTSEM THEO 1:11:9   ACKO VE1 4 146
20 LOGGHE DIRK 1:11:9   ACKO SEN 16 434
21 MOLEMANS PATRICK 1:11:19 DUURSPORT   SEN 17 79
22 BOURDON ALAIN 1:11:27 JOGGING + CAS SEN 18 1613
23 MULDER JANS 1:11:47 PHOENIX AVP VE1 5 439
24 VAN WESEMAEL ETIENNE 1:11:51 SPAALST   SEN 19 1197
25 PIRAUX DIDIER 1:11:58 ANTI LOB USBR SEN 20 462
26 SRUYNBROECK ROGER 1:12:2 ZELIA TEAM   SEN 21 113
27 DE KIMPE BERNARD 1:12:12 TECHNISPOR   SEN 22 1162
28 BEVERLY JONATHAN 1:12:19     SEN 23 1270
29 TRIZZULA GIACOMO 1:12:19   RFCL SEN 24 1122
30 159 1:12:26 AZG     1 159
31 HUYSSEUNE LUC 1:12:31 SWIFT   SEN 25 1591
32 BOHAN NIALL 1:12:37   CACE SEN 26 455
33 DILIBERTO ANTONINO 1:12:55     SEN 27 128
34 PIETTE BERNARD 1:13:2   RCB VE1 6 57
35 BROQUET PHILIPPE 1:13:33     SEN 28 1595
36 LLEWELLYN WENDY 1:13:49   DCLA AI1 1 401
37 VINCE JAN 1:13:59 SPAALST   VE1 7 1207
38 CLAEYS MARC 1:14:29   SPVI SEN 29 60
39 LAHAYE RUDY 1:14:35 ANTILOB   VE1 8 1127
40 GONZALEZ XAVIER 1:14:40     SEN 30 44
41 LINTERMANS RIK 1:14:43 TT LEUVEN   VE1 9 135
42 HAUTMAN RONNY 1:14:46     SEN 31 1573
43 GALLEZ PAUL 1:14:48 _   VE2 1 564
44 DEGERT VINCENT 1:14:49 COSTARDS P   SEN 32 1574
45 CAMPS DANNY 1:14:57 PEGASUS TI   VE1 10 104
46 OLBRECHTS PASCAL 1:15:2 AKGRIMBERG   SEN 33 36
47 LAFORT ERIK 1:15:4   KAAG SEN 34 460
48 GALLEZ OLIVIER 1:15:8 SPIBO   SEN 35 565
49 SCHEPETLEVANE GILBER 1:15:10 JOGGANS IXEL VE2 2 424
50 MAGAN EL HOUSSINE 1:15:15 HUYVILLEDE   SEN 36 111
51 DIERICKX JOSE 1:15:32 TECHNISPOR CABW VE1 11 1073
52 ACKE FRANCIS 1:15:42     VE1 12 31
53 ROSSEELS SERGE 1:15:46 LEEUWERIK   VE1 13 39
54 SERON CLAUDE 1:15:50   UAC VE1 14 1329
55 DUQUET THIERRY 1:15:52 SPAALST   SEN 37 1208
56 PEETERS STEPHANE 1:15:52 PROCTER G   SEN 38 1515
57 BEEKEN WALTHER 1:15:54 JOGGING +   VE1 15 433
58 SERGEANT NOEL 1:15:55 FORESTIERE   SEN 39 472
59 VAN KEYMEULEN DANNY 1:15:56     SEN 40 1199
60 RENARD PIERRE 1:15:57     SEN 41 552
61 LAFORGE PASCAL 1:15:59 LDLV   VE1 16 558
62 GREPPO RENATO 1:16:7   RFCL VE1 17 1121
63 KERCKHOFS LUC 1:16:13 SPAALST   SEN 42 1209
64 MEREMANS YVES 1:16:19 FURALOPERS ACKO VE1 18 97
65 GILISSEN JOHNNY 1:16:22   OSCK SEN 43 131
66 NEYNS BART 1:16:24 JC MOLLEM   SEN 44 551
67 HOORENS CARLOS 1:16:25   LDLV SEN 45 417
68 JANSSEN MIGUEL 1:16:41   STEN SEN 46 10
69 HANSEN GERALD 1:16:43 XEROX   SEN 47 1558
70 BOLSIND TOM 1:16:49     SEN 48 511
71 LEMMENS JOS 1:17:2 PEGASUS   VE1 19 441
72 HOORENS RENE 1:17:6 LDLV   SEN 49 1119
73 REINARTZ WILFRIED 1:17:8   LACE VE1 20 1725
74 DUCAMP JACQUES 1:17:11 ANTILOP   SEN 50 1120
75 MEYER PHILIPP 1:17:15 FURALOPERS   SEN 51 69
76 SNEPPE THIERRY 1:17:22 JOGGING +   SEN 52 1154
77 DUFOUR MICHEL 1:17:25 JOGGING + DS VE2 3 1155
78 LEFAIBLE YVAN 1:17:26 JOGGING + LWA VE1 21 1561
79 HERREMANS MARC 1:17:27 LEEUWERIK   VE1 22 375
80 DUSART JEAN CLAUDE 1:17:34 ANTI LOB   VE1 23 1676
81 UITDEBROECKS ROMAIN 1:17:39   ACA VE1 24 25
82 LEVACQ GUY 1:17:40 LDLV   VE2 4 1118
83 DEWACHTER LUC 1:17:45 BOCCALINO   VE1 25 373
84 SIMON PHILIPPE 1:17:47     SEN 53 1675
85 LUCCHESE SERGE 1:17:48 AMAY   VE1 26 1739
86 DE GROUE MARK 1:17:49 SABOTEURS   VE1 27 1353
87 MAERTENS CLAUDE 1:17:49   BAV SEN 54 1393
88 LUTKEHUS RAINER 1:17:49     VE1 28 517
89 TEIRBROOU EDDY 1:17:52 SPVI   SEN 55 1854
90 YZOARD FRANCIS 1:17:52 LUMES   SEN 56 1242
91 DE BUYSER PAUL 1:17:53 SPVI   VE1 29 1853
92 DEMARET MICHEL 1:17:54 FORESTIERE   SEN 57 473
93 GUIDOLIN JEAN PIERRE 1:17:55 SERAINGRUN   SEN 58 1219
94 SELLESLAGH ANDRE 1:17:58 KURISTO F CAS VE1 30 1019
95 MOENS ALAIN 1:17:58 KURISTO F   VE1 31 1631
96 THEUNIS GERT 1:17:59 HTT FCHA SEN 59 55
97 VAN CRAENENBOECK DIR 1:18:6   BETA VE1 32 1
98 PULINX PETER 1:18:9   ACA SEN 60 379
99 BAKER JOHN 1:18:11     VE2 5 151
100 VAN OPHALVENS DAVID 1:18:14   BIN SEN 61 1562
101 LANNOY MICHEL 1:18:39 AMAY   VE1 33 1526
102 DE PAUW GUSTAAF 1:18:46 SPAALST   SEN 62 1204
103 LOUVRIER BERNARD 1:18:56 GET TO 25   VE1 34 1272
104 DEWIT RAYMOND 1:19:0 AMAY   SEN 63 1797
105 BECKERS SERGE 1:19:5     SEN 64 427
106 ELSOCHT MICHEL 1:19:12 ROYBELGE   SEN 65 1178
107 DE KEYSER ALAIN 1:19:12 SWIFT   VE1 35 1652
108 GILBERT OLIVIER 1:19:14 TECHNISPOR   SEN 66 1502
109 DHEER MIET 1:19:14 BRRC   DAM 1 519
110 HAEGEMAN WIM 1:19:21 SPAALST   SEN 67 1206
111 VERMAEREN LUCIEN 1:19:30 SPAALST   SEN 68 1196
112 SERGYSELSZ PASCAL 1:19:32 JOGGING H   SEN 69 152
113 DENEFFE GEORGES 1:19:49   HTT VE1 36 154
114 SMETS PATRICK 1:20:0 BANKSYS PR   SEN 70 1234
115 DEFRAENE PATRICK 1:20:2 ANTI LOB   SEN 71 578
116 THIRIFAYS JACQUES 1:20:6 ISB   VE1 37 1367
117 NUYTTENS JAN 1:20:16   DILB VE1 38 1680
118 LACASSE THIERRY 1:20:24     SEN 72 1492
119 AGUILERA FRANCISCO 1:20:27 EUROPAY   VE1 39 1287
120 LIESENS BERNARD 1:20:29     ESP 1 68
121 VERHEYDEN ANDRE 1:20:31 JOG PEULIS   VE1 40 1249
122 SMITH JULIA FRANCE 1:20:34 CEPAL   DAM 2 1576
123 PUTMAN JESSY 1:20:37 ACLO   ESP 2 430
124 QUINET JEAN PAUL 1:20:40 PROMUSPORT FLEU VE1 41 1517
125 DEKENS ROMAIN 1:20:48 JOGGANS   VE2 6 1499
126 EVRARD PATRICK 1:20:53 JOGGING + OCAN SEN 73 1411
127 PEETROONS FILIP 1:20:56   ITM SEN 74 8
128 HINDERICKX PIERRE 1:20:58     SEN 75 503
129 POQUET YVAN 1:21:7 JOG WHT   VE1 42 4
130 CENERELLI DOMINIQUE 1:21:16     VE1 43 149
131 DELFOSSE BERNARD 1:21:20 XEROX   VE1 44 1557
132 DETAILLE VINCENT 1:21:20 GAL RCB SEN 76 406
133 QUINET BERNARD 1:21:26   FLEU VE1 45 468
134 BRIOL PAUL 1:21:27   BIN SEN 77 56
135 506 1:21:30       2 506
136 VIGNERONT PAUL 1:21:36   HTT VE1 46 156
137 RIJCKAERT LAURENT 1:21:43     SEN 78 126
138 ICKET ERIK 1:21:48 SWIFT ARCH VE1 47 1738
139 HENRY ANDRE 1:21:50 AG   SEN 79 1532
140 WERDER HENRY 1:21:52   LACE SEN 80 416
141 KISACIK IBRAHIM 1:21:57     SEN 81 1304
142 BAUM ALFRED 1:21:58   LACE SEN 82 1748
143 VERMEIREN DANNY 1:22:1 TUAC   VE1 48 1656
144 RANDAXHE FRANCOIS 1:22:8   RFCL VE1 49 1665
145 EVRARD MARC 1:22:12     SEN 83 1408
146 DELARIVIERE CHRISTIA 1:22:17     VE1 50 464
147 LUTS DANIEL 1:22:18 LIEDEKERKE   VE1 51 1258
148 POULIN JOEL 1:22:24 TECHNISPOR   VE1 52 1525
149 VANDEN BRANDE MARC 1:22:34 JOGGING + LWA SEN 84 96
150 WAUTERS ERIC 1:22:37 BRRC   SEN 85 520
151 LAMBION ARNAUD 1:22:41     SEN 86 1473
152 NEYS GUIDO 1:22:43 WORLDRUNNE   VE2 7 1052
153 SATTA COSTANTINO 1:22:43   UAC SEN 87 1330
154 VERMAEREN PATRICE 1:22:45 SPAALST   SEN 88 1210
155 SANDERS PHILIPPE 1:22:50 PENNY & CO   VE1 53 1436
156 DE CONINCK HANS 1:22:52 ACP ACP VE2 8 391
157 DE WEERT KOEN 1:23:2   ITM ESP 3 114
158 DEMARETS JOEL 1:23:17 FORTIS USBR VE1 54 476
159 JANSSENS RONAN 1:23:18   WALO SEN 89 133
160 HEINEN HENRI 1:23:20   SER VE2 9 701
161 VVAN SIMAEYS PAUL 1:23:27 CEPAL   SEN 90 372
162 WILLIEMSE STAF 1:23:30 JOG PEULIS   VE1 55 1248
163 DIXON ALAN 1:23:36     VE2 10 1256
164 CARTIAUX MURIEL 1:23:37     DAM 3 1634
165 STORDEUR MAURICE 1:23:38 RC NAMUR   VE1 56 1334
166 TIRTIAUX CHRISTIAN 1:23:42     VE1 57 485
167 STROOBANT MARCEL 1:23:42 LIEKERK JG   VE1 58 1518
168 JOUZA RICK 1:23:43     SEN 91 74
169 ALLARD MICHEL 1:23:48     VE2 11 1486
170 ROBERTI DE W MAX 1:23:52 JC RONVAU LAC VE1 59 1511
171 GRIMONT JEAN MICHEL 1:23:59   UAC VE1 60 1331
172 ERTZINGER JEAN PIERR 1:24:5     VE1 61 75
173 LOBBAERT ANNE 1:24:11 PALLIETERS VITA AI1 2 400
174 CRAEYNEST JEAN MARC 1:24:19     SEN 92 162
175 KITAHARA MASASHI 1:24:21     SEN 93 1464
176 RUYMEN MICHEL 1:24:28     VE1 62 1093
177 BATAILLE THIBAULT 1:24:34     SEN 94 50
178 CATTRYSSE DOMINIC 1:24:36   BIN SEN 95 1151
179 VAN LANCKER FREDDY 1:24:48 SPAALST   SEN 96 1200
180 PUTTEMAN PAUL 1:24:48 SPAALST   SEN 97 1198
181 FOURMOIS MARC 1:24:49   CSF VE1 63 1406
182 COSSYNS CHRISTOPHE 1:24:49   CSF SEN 98 1405
183 BROCAL CATHERINE 1:24:54   HUY JUF 1 1833
184 2200 1:24:58       3 2200
185 EHLINGER ALAIN 1:24:59   AVT VE1 64 1040
186 LAGRENET CEDRIC 1:25:3 JOG BEERSE   SCO 1 160
187 STROOBANTS HERMAN 1:25:19   BERT SEN 99 1662
188 VAN DEN EYNDE PHILIB 1:25:22 ASUB   VE1 65 1376
189 BERSEE BEN 1:25:29 ITM   SEN 100 1011
190 PAYEN PIERRE 1:25:30 RCB   VE2 12 1050
191 ROUZEEUW XAVIER 1:25:33     ESP 4 1092
192 VANDELEENE PHILIPPE 1:25:34     VE1 66 1541
193 HAENTJENS KRIS 1:25:36     VE1 67 64
194 DUCHATEL ANDRE 1:25:37 JOGGANS   VE2 13 1344
195 VANDER AUWERA FLOREN 1:25:41 JOG PEULIS   VE1 68 1577
196 CORTI SERGIO 1:25:43   CAS VE2 14 1638
197 HEREMANS ERIC 1:25:47 LEEUWERIK   VE1 69 38
198 BUSTIN ALAIN 1:25:52 JOGGING +   VE1 70 1243
199 DEVOREST YANN 1:26:4     VE1 71 1417
200 VAN CAUWENBERGH GUY 1:26:7     SEN 101 1096
201 DE KEGEL DIMITRI 1:26:8 TRICA   SEN 102 47
202 AERTS RUDY 1:26:17 BWR     4 1195
203 CAILLOUX GUY 1:26:21 CEPAL   VE2 15 1104
204 DUBOIS TANGUY 1:26:22 JOGGANS   SEN 103 534
205 DE PAPPER CHRISTOPHE 1:26:25   CSF JUN 1 108
206 VANDE VELDE LEO 1:26:26 ITM   VE2 16 1126
207 VANDERWAEREN MICHEL 1:26:28     VE1 72 384
208 MAMERE JACQUES 1:26:28 JOGGING +   VE1 73 1567
209 NICOLAY RENE 1:26:28 KURISTO F WS VE2 17 1432
210 PERMEEL BART 1:26:31     SEN 104 98
211 COCHE YVES 1:26:43     VE1 74 1456
212 VERSTRAETE ALAIN 1:26:44   VAL VE1 75 1161
213 SMEKENS VINCENT 1:26:47     SEN 105 1006
214 SERCU FILIEP 1:26:50     SEN 106 405
215 LADRIERE CHRISTIAN 1:26:52   ACLO VE1 76 1110
216 PAU CONSTANTINO 1:26:54   UAC VE2 18 1604
217 LAUWERS MICHEL 1:26:56 WATERLO JG   SEN 107 452
218 VANDERVEKENS BERT 1:26:58 TRICA   ESP 5 49
219 DE HERTOG DANIEL 1:26:59     VE1 77 1758
220 HAUTMAN RUDY 1:27:5 ROADJOGGER   VE1 78 1171
221 BREES PETER 1:27:7   BTC SEN 108 382
222 HANIN BRUNO 1:27:7 BTC   SEN 109 1472
223 VAN LANDUYT JEAN YVE 1:27:8   MOHA SEN 110 1505
224 CLAES JEAN 1:27:10 ELECTRABEL   VE2 19 1245
225 BOUCART J FRANCOIS 1:27:11     SEN 111 567
226 SANTOCONO JEROME 1:27:18   ACLO SEN 112 1306
227 HOFSTEDE WILBERT 1:27:24 SWIFT   SEN 113 1590
228 DOS SANTOS DOMINGOS 1:27:40     VE2 20 1152
229 CLAESSENS THOMAS 1:27:45 ST JULIEN   JUN 2 1429
230 CROISELET BERNARD 1:27:47 TECHNISPOR   SEN 114 1166
231 1355 1:27:47       5 1355
232 VREYS JAN 1:27:47     SEN 115 1404
233 GILSON PHILIPPE 1:27:51     VE1 79 16
234 ADRIAENSSENS BRUNO 1:27:52     SEN 116 458
235 DAELEMANS RUDY 1:27:54   DILB VE2 21 124
236 DE MEY JIM 1:27:57 LA PAZ   SEN 117 81
237 LEHAIRE PHILIPPE 1:27:59     VE1 80 138
238 VERSTAPPEN KAREL 1:28:0     VE2 22 1746
239 BRUYNINCKX WILLY 1:28:2 GET TO 25   VE2 23 479
240 SHEFFIELD KIM 1:28:2     DAM 4 17
241 VANHAEKENDOVER J.F 1:28:5 ANTI LOB   VE1 81 93
242 MOES ALAIN 1:28:7   RCB SEN 118 1255
243 LEGRAIVE MICHEL 1:28:9   AVT SEN 119 1551
244 LOUIS PHILIPPE 1:28:12 LDLV   VE1 82 1462
245 DESWARTE PHILIPPE 1:28:13   WALO SEN 120 137
246 BROHET MARC 1:28:17 SPIBO   SEN 121 1265
247 ZYLBERBERG LUC 1:28:17 JOGGANS   VE1 83 1610
248 POPPLZ JOHAN 1:28:21 BRRC   VE1 84 18
249 DECLERQ MICHAEL 1:28:25   SPVI SEN 122 1730
250 SCHOONJANS VICTOR 1:28:27   ACP VE1 85 1708
251 HOUTHUYS GUY 1:28:29 JOG PEULIS   VE1 86 1252
252 FALQUE PIERRE 1:28:32 JOGGING +   SEN 123 1724
253 VAN OOST PAUL 1:28:37   JC RON VE1 87 385
254 GANASSIN LUCIA 1:28:38 RRHUY   AI1 3 1664
255 VAN BELLE PATRICK 1:28:43 JOG PEULIS   SEN 124 1247
256 VANDENBERGHE MARNIX 1:28:43 ANTILOB   VE2 24 1523
257 BLOMMAERT GEERT 1:28:49 TRICA   SEN 125 48
258 LEMONNIER THIERRY 1:28:56 LA MULE   SEN 126 94
259 WEIHRAUCH PAUL 1:28:57 ALLURE LIB   SEN 127 67
260 MATHY JACQUES 1:29:0 ROYBELGE   VE2 25 1617
261 BOVYN ALEX 1:29:1 LIEKERK JG   VE1 88 1239
262 VAN DEN BROECK LOUIS 1:29:2   WALO VE2 26 136
263 DOR PATRICK 1:29:7 ANTI LOB   VE1 89 163
264 2200 1:29:17       6 2200
265 VAN DE WALLE MARC 1:29:23 JC OOSTERZ   VE1 90 1516
266 WILMS BRUNO 1:29:24     SEN 128 1187
267 DEGAILLIER J PIERRE 1:29:25     VE1 91 1579
268 GAUTIER PATRICK 1:29:26     SEN 129 1597
269 D'AMBROSIO THIERRY 1:29:27 JOGGING +   SEN 130 1266
270 DECNOP JEAN LUC 1:29:29 WATERLO JG LION VE1 92 1655
271 ALBERT CHRISTIAN 1:29:30 KURISTO F   SEN 131 1044
272 POOT STEPHANE 1:29:31 JOGGANS   VE2 27 1339
273 DE WITTE GUSTAAF 1:29:37     SEN 132 1545
274 DE THIBAULT THIERRY 1:29:41 FORESTIERE   SEN 133 1013
275 ROZZI STEPHANE 1:29:46 BTC   SEN 134 1360
276 ROTSAERT LUC 1:29:49 JOGGING +   SEN 135 1578
277 2200 1:29:51       7 2200
278 DE VOOGT LISETTE 1:29:53   ABAV AI2 1 428
279 BARREMAECKER ALBERT 1:29:54   ABAV VE1 93 532
280 DE FEYTER MARC 1:30:4 LIEKERK JG   VE2 28 1677
281 DESMET INGRID 1:30:4 LDLV   DAM 5 1107
282 CAWET JEAN PIERRE 1:30:8 JOGGANS   VE1 94 1608
283 WILMOTTE ETIENNE 1:30:11 FANAJOG   VE1 95 1005
284 VAN VAERENBERGH OMER 1:30:16 LIEKERKE   VE1 96 1257
285 PIACENTINI FRANCESCA 1:30:17   RCAS DAM 6 1172
286 LAMOTTE LEON 1:30:18   SPVI VE3 1 1086
287 MUYTJENS RENE 1:30:21 ANTI LOB   VE2 29 461
288 SOL RUDY 1:30:23 PEULIS   SEN 136 1250
289 COLON BENOIT 1:30:25     SEN 137 1832
290 70 1:30:33       8 70
291 TEMMERMAN JEAN PAUL 1:30:35 SPAALST   SEN 138 1202
292 BINKERT MARC 1:30:42 LDLV   SEN 139 86
293 VAN DEN ABBEELE MARK 1:30:45 SWIFT   SEN 140 1593
294 MICHIELS DIRK 1:30:49 SPAALST   SEN 141 1124
295 VERHULST GEORGES 1:30:54   RCB VE2 30 802
296 REDONDO PEDRO 1:30:54 PENNY & CO RCB VE1 97 1440
297 MELISSEN BRUNO 1:30:56     VE2 31 1495
298 VAN DEN BROECKE P 1:31:15 FERRAZ   VE1 98 463
299 MENTEN RENAUD 1:31:18     SEN 142 409
300 CHAVATTE ROGER 1:31:23   ACG VE2 32 1683
301 BADARTT MARC 1:31:24 SPT WAVRE   VE1 99 1768
302 GHYS OLIVIER 1:31:26 JOGGANS   SCO 2 1336
303 CLOOSTERMANS PATRICE 1:31:38 KURISTO F   VE1 100 1642
304 VERHOEVEN JOSI 1:31:44   AC LYR AI1 4 475
305 DECHANET CLAUDY 1:31:45   HTT VE1 101 158
306 COPPOLA GIOVANNI 1:31:47   CSF VE1 102 1491
307 BAUWENS WILLY 1:31:49 JOGGANS   VE3 2 1498
308 DEWEERDT ERIK 1:31:50 KNUROO   SEN 143 121
309 MATHIEU PAUL 1:31:52     VE2 33 1003
310 VANNOORBEELK XAVIER 1:31:54     SEN 144 381
311 GILLAIN PIERRE 1:31:55 RC NAMUR   VE1 103 1755
312 MOUREAU DANIEL 1:31:56 JOGGANS   VE1 104 1340
313 VAN OPSTAL PATRICK 1:32:3     VE1 105 390
314 LERIAS ANTONIO 1:32:13     VE1 106 1554
315 HOUSSA JEAN-MARC 1:32:13 FORESTIERE   SEN 145 471
316 COURBET MICHEL 1:32:14     VE1 107 1263
317 LESNE DIDIER 1:32:20 LDLV   SEN 146 1463
318 LAENENS FRANCIS 1:32:25 ROYBELGE   VE1 108 1726
319 BONFITTO PASQUALINO 1:32:26     VE2 34 1351
320 FERAILLE DANIELLE 1:32:28 WS   AI1 5 1394
321 FIEVET JOEL 1:32:32     SEN 147 1268
322 GRIFFET SERGE 1:32:33     VE1 109 1113
323 CURIAS CHANTAL 1:32:35     AI1 6 498
324 POLET JEAN 1:32:36     VE1 110 1679
325 DROOGMANS PIETER 1:32:39 LEEUWERIK   VE2 35 1490
326 MERCKX KAREL 1:32:44   SPBO VE1 111 486
327 MONTURIER SERGE 1:32:51   CPMV VE2 36 21
328 DEKKERS DANIEL 1:32:52     VE3 3 1018
329 KIN GEORGES 1:32:54   RCB VE2 37 1710
330 DOUXCHAMPS FRANCOIS 1:33:1   MSF VE2 38 1066
331 CAUCHIE MARC 1:33:10     VE2 39 12
332 DECAMPS RUDY 1:33:13     SEN 148 1114
333 VANDEVELDE WILLIAM 1:33:22 DUUR SPORT   VE3 4 52
334 SCHEERDER ARNOLD 1:33:37 SP V AZG   VE2 40 9
335 DUBOIS GERARD 1:33:47 JOGGANS   VE3 5 1399
336 BERTRAND M JEANNE 1:33:48 JOGGANS   AI1 7 1400
337 FERKET MARC 1:33:52   WALO VE1 112 132
338 BERGMANS GUIDO 1:33:56 TORTUES ME   VE1 113 1719
339 DENIS MARCEL 1:34:1 JC RONVAU   VE2 41 1550
340 GHYS DIRK 1:34:15   RCAS VE1 114 378
341 LUYPAERT ARMAND 1:34:15   GRIM VE1 115 1510
342 CEULEMAERE PAUL 1:34:19 INCOGNITO   SEN 149 1164
343 VAN LOO ARMAND 1:34:21 JOGGANS   VE2 42 1485
344 RENOIR CLAUDINE 1:34:23   3 AI2 2 1150
345 HOOGDERT DIDIER 1:34:25     SEN 150 502
346 JAMMAERS CHRISTIAN 1:34:25 AG   VE1 116 1084
347 HEYMANS THIERRY 1:34:28 SWIFT   SEN 151 1589
348 VANMECHELEN TIM 1:34:31     SEN 152 80
349 FRANCIS JACQUES 1:34:33 TENDONS DE   VE2 43 1863
350 HENDRIX DANIEL 1:34:36 ESM   VE2 44 1659
351 VAUGHAN MORRIS GREGO 1:34:40     SEN 153 505
352 DEPLUS ALAIN 1:34:46 BELGIANBOY   SEN 154 109
353 BRASSART ? CHRISTIAN 1:34:57   BIN SEN 155 559
354 FORNIER JEAN ROGER 1:34:59 BANKSYS PR   VE1 117 1235
355 CAMACHO PATRICK 1:35:5 LDLV   SEN 156 19
356 JACOB LEON 1:35:11 HTT HTT VE1 118 155
357 2200 1:35:27       9 2200
358 SEGHERS RITA 1:35:29     AI2 3 1602
359 DE BOCK JOHN 1:35:29     VE2 45 1569
360 VAINWRIGHT RICHARD 1:35:30 CEPAL   VE2 46 1131
361 COOL BRANDT LIEVE 1:35:33 ROADJOGGER   AI2 4 1173
362 VAN REUSEL BENOIT 1:35:38     VE2 47 1186
363 PODEVIJN JEAN PAUL 1:35:40 JOG HAALTE   VE1 119 166
364 2200 1:35:43       10 2200
365 HOSTE MARC 1:35:43 RCB   SEN 157 1148
366 KAYBANDA GREGOIRE 1:35:49     VE1 120 377
367 LELOUP STEPHAN 1:36:1     VE1 121 1142
368 VALET ANDRE 1:36:3   ULA SEN 158 1021
369 VAEHEYDEN JO 1:36:7     SEN 159 37
370 VAN POPERING EMILE 1:36:9 KAPUC   VE1 122 1539
371 RICOUR HERVE 1:36:19 HAC   SEN 160 1017
372 VERBOOMEN JEAN LOUIS 1:36:23     SEN 161 46
373 LECHAT EUGNE 1:36:42 MIEUVIVRE LBFA VE3 6 1103
374 SONET RENAUD 1:36:49 TECHNISPOR   ESP 6 1669
375 RAMOS VICTOR HUGO 1:36:54 LEGRAND   VE1 123 1369
376 DEBAERDEMAEKER ERIK 1:36:55 LIEKERK JG   SEN 162 1530
377 BOLLE LUC 1:36:58     VE1 124 127
378 DE GROOTE NICOLAAS 1:36:59 CEPAL IXEL SEN 163 374
379 FLAMAND ROLAND 1:37:2 ANTI LOB   VE1 125 387
380 DASSY HENRI 1:37:2 ANTI LOB   VE1 126 1835
381 VERHELLEN THIERRY 1:37:17 KAPUCIENE   VE1 127 1559
382 CHAFFANJON PIERER 1:37:27 BIN   SEN 164 533
383 ESSAWTI MOHAMED 1:37:31   UAC VE1 128 1605
384 CAUBERGS GUY 1:37:38     VE1 129 803
385 LELOUP DANIEL 1:37:45 ROYBELGE   VE2 48 1616
386 JANSSENS JEAN MARIE 1:37:46 ROYBELGE   VE1 130 1615
387 NOLIS LOUIS 1:37:52   BERT VE2 49 1292
388 BAUDIN CHRISTOPHE 1:38:6     SEN 165 527
389 VANGERMEERSCH ROLAND 1:38:7     VE2 50 1305
390 MASSATT VICTOR 1:38:8     VE1 131 157
391 LORANT HUBERT 1:38:21 BELGIANBOY   VE3 7 1016
392 LEUS STEFAN 1:38:31     SEN 166 418
393 CAPPIAU STEPHANE 1:38:45 DTTA   SEN 167 1507
394 SANGLIER PATRICK 1:38:46 LDLV   SEN 168 1012
395 KEBDANI AZEDDINE 1:39:9     SEN 169 3
396 WAUCAMPT REGGIE 1:39:15 ANTI LOB   VE1 132 1625
397 DEDIEU ALEX 1:39:17     SEN 170 1261
398 BANDIN MARC 1:39:19     VE1 133 1067
399 KOLP CHRISTIAN 1:39:22     VE1 134 1163
400 RIGOT SERGE 1:39:32   RCB VE2 51 1643
401 STASSART MICHEL 1:39:32 TENDONS BIN VE1 135 1555
402 ORBAN JEAN LUC 1:39:41     VE1 136 1624
403 SIMON JEAN FRANCOIS 1:39:47     SEN 171 34
404 FLAMENT EDDY 1:40:5 FORESTIERE   SEN 172 1661
405 DEBEKKER ALAIN 1:40:6     VE2 52 1070
406 STEVENS ALAIN 1:40:14 WINTERTHUR   SEN 173 1349
407 BENNE JEAN LOUIS 1:40:19   RIWA VE1 137 1068
408 2200 1:40:31       11 2200
409 GENIN GUY 1:40:39 JOGGANS   VE2 53 1343
410 GHYS DANIEL 1:40:40 JOGGANS   VE1 138 1612
411 2200 1:40:44       12 2200
412 DE VOS STEN 1:40:58     SEN 174 570
413 STRIMONT OLIVIER 1:41:4     SEN 175 1537
414 DUMOULIN PETER 1:41:12     VE1 139 28
415 THIRIAUX JOSE 1:41:16   UAC VE3 8 1603
416 JONCKHEERE BENOIT 1:41:26     VE1 140 1275
417 GENIN BENOIT 1:41:28 JOGGANS   SEN 176 1342
418 GENIN MARYLENE 1:41:35 JC RONVAU   DAM 7 1552
419 DURIEUX PHILIPE 1:41:36     VE1 141 454
420 DEBILDE A.FRANCOISE 1:42:28 JC RONVAU   AI1 8 1514
421 FRANCO ZUMA 1:42:36 LEGRAND   VE2 54 1370
422 MARCHANT YVES 1:42:51     VE1 142 573
423 SONZA ZORI 1:43:13     DAM 8 73
424 2200 1:43:39     SEN 13 2200
425 ROOT WILLIAM 1:43:42     VE1 143 1136
426 KENNES CHRISTIAN 1:43:44     VE1 144 523
427 VERDEYEN JEAN PIERRE 1:43:46   ACKO VE1 145 1752
428 TOUT JEAN MARIE 1:43:57 4 BRAS   VE1 146 1158
429 URBAIN GINETTE 1:44:4     AI2 5 83
430 COENE DANIELLE 1:44:5 SPIBO   AI2 6 562
431 GRANDFILS ERIC 1:44:6 SPIBO   VE1 147 82
432 GALLEZ GREGORY 1:44:6 SPIBO   SEN 177 563
433 VAN HOUTTE GABRIEL 1:44:13   BIN VE2 55 1421
434 COUCK ROGER 1:44:32 JOGGANS   VE3 9 1338
435 UYTTEBROEK ROBERT 1:44:41 KNUROO   SEN 14 497
436 VAN BUGGENHOUT PATRI 1:44:43 KNUROO   VE1 148 496
437 COMMANDINI LUCIANO 1:44:44   LACE VE1 149 1606
438 PLUMET CARINE 1:44:48 LDLV   AI1 9 1506
439 RODER PATRICK 1:44:48 LDLV   VE1 150 1503
440 LEJEUNE SERGE 1:44:52 GODEFROY BOA VE1 151 1563
441 KEMPS JEAN PIERRE 1:44:54     VE1 152 410
442 DE WEERDT LIEVE 1:44:54 LEEUWER   ESF 1 403
443 DEBRAUT CHRISTOPHE 1:44:55 LEEUWER   SEN 178 411
444 HENRY BERNARD 1:45:8 MIEUVIVRE   VE2 56 1047
445 VANNIEUWENHO MARTINE 1:45:25 ANTI LOB   AI1 10 1447
446 CHALMIN ANDRE 1:45:25 BMPH3   VE1 153 1407
447 CLEMENT JACQUES 1:45:32     VE1 154 1058
448 EDWARDS MICHAEL 1:45:46     VE2 57 1075
449 LEKAIN ERIC 1:45:57 JC RONVAU   SEN 179 1520
450 DOMAZETIS CHRISTOS 1:46:37     SEN 180 1496
451 TARLET DANIEL 1:46:47 JOGGANS   VE1 155 1341
452 DEGRAVE ETIENNE 1:46:57 4 BRAS   VE1 156 1483
453 LOSSIGNOL GUY 1:47:7 AG   VE1 157 6
454 DESSY STEPHANE 1:47:13     VE1 158 495
455 VAN HECKE ACHIEL 1:47:21     VE3 10 1358
456 VAN HOOF SONIA 1:47:28 JOGGING + CSF AI1 11 125
457 PENNINCK DOMINIQUE 1:47:50 XEROX   VE1 159 1632
458 GODFROID YVES 1:47:55 JOGGING +   SEN 181 1528
459 DE KERPEL ALAIN 1:47:56 JOGGING +   VE1 160 1682
460 SACRE GUY 1:47:59 JOGGING +   VE2 58 480
461 VERHAEGHE LEON 1:48:3 ARTTESIA   VE2 59 148
462 DEWILDE BERNARD 1:48:3     VE1 161 167
463 VAN WEYENBERG JEAN 1:48:4   SPVI VE2 60 1049
464 FEYENS RAYMOND 1:48:12 CSF LBFA VE1 162 141
465 ENGLEBERT DANIEL 1:48:21 FORESTIERE   SEN 182 470
466 PIRSON PATRICE 1:48:24 JOGGANS CAS VE1 163 1614
467 DE WAELE LIEVE 1:48:27 RUNNERS EV   AI2 7 492
468 STOCKMANS FRANCOIS 1:48:55   RCB SEN 183 1596
469 VEROEVEREN LUC 1:49:7 RUNNERS EV   VE2 61 376
470 VANDEWEYER ERIK 1:49:45 RUNNERS WE   SEN 184 1509
471 VALLEE ANDRE 1:50:6 KNVROO   VE3 11 499
472 JANSSENS PAUL 1:50:11 SWIFT   SEN 185 1584
473 RAEMDONCK STEPHAN 1:50:14 SWIFT   SEN 186 1592
474 PERPETE PHILIPPE 1:50:29 RC NAMUR   SEN 187 1572
475 SGHEERE WIM 1:50:42     VE1 164 1794
476 BOHY RONNY 1:50:55 CS DYLE   VE2 62 1145
477 ROUYER JACQUES 1:51:22 JOGGING + BOA VE3 12 1091
478 KEMPENNERS VINCENT 1:51:37     SEN 188 130
479 HOTTE MAURICE 1:51:37 RC NAMUR OCAN VE1 165 1600
480 LEVY DOMINIQUE 1:51:55 KURISTO F   VE2 63 1448
481 1373 1:51:59     SEN 15 1373
482 GUFFENS JEAN PIERRE 1:52:43     VE1 166 1014
483 JASSOGNE ANDRE 1:53:36 4 BRAS   VE3 13 1467
484 HOORNAERT JEAN 1:53:44     VE3 14 535
485 DUREZ J.FRANCOIS 1:53:44     SEN 189 1312
486 SAUNDERS BARRY 1:55:44     SEN 190 1381
487 HIBBS ANDREW 1:55:58     SCO 3 1081
488 EDWARDS PATRICK 1:55:58     SCO 4 1076
489 SIERAKOWSKI JACEY 1:56:16     VE2 64 383
490 VAN OBOST ANNE 1:56:43     DAM 9 1461
491 JANUTH MARC 1:56:57     VE1 167 1141
492 SCHOEVAERDTS DOMINIQ 1:57:28     SEN 191 1645
493 DE BLIECK PHILIPPE 1:57:29     VE1 168 1646
494 GUILLIANS GUY 1:58:32 ROYBELGE   VE2 65 1345
495 PONSELET MONIQUE 1:58:55     AI1 12 1459
496 DUVIEUSART JEAN VALE 1:59:19     SEN 192 536
497 DALLEMAGNE OLIVIER 1:59:23     SEN 193 538
498 DE BORMAN GERALDINE 1:59:28     DAM 10 537
499 SURNY ANNE 1:59:29 4 BRAS   AI2 8 1468
500 PAIROUX CHANTAL 2:0:5     AI1 13 1002
501 PIETQUIN JEAN PIERRE 2:0:8     VE1 169 1001
502 EDWARDS KARIN 2:0:13     JUF 2 1077
503 HEFFINCK NATACHA 2:0:14 SHAPE   SCF 1 41
504 EDWARDS ELIZABETH 2:0:47     AI2 9 1074
505 BERNARD THIERRY 2:2:21     VE1 170 1460
506 BATARDY MICHEL 2:4:21 JOG MONTAG   VE2 66 122
507 SAUNDERS LEA 2:4:44     AI1 14 1382
508 MITCHELL PAULA 2:4:45     AI1 15 1380
509 COPPE STEPHANE 2:5:25     VE1 171 1628
510 CERINI CARLA 2:5:38   ESM DAM 11 1176
511 PLISSART EMMANUEL 2:6:53     SEN 194 1449
512 MARRACCINI LORENZO 2:13:56 ARLETTE   VE3 15 1443
513 MOGE RENE 2:19:53     VE3 16 1867
514 CASSENAEK ROGER 2:23:42 CLUBSYM   VE3 17 1357
515 PIRLOT ANNICK 2:24:34 ORVAL   DAM 12 1100
516 VEREECKE MARC 2:24:37     SEN 195 1482
517 PIRLOT JOSEPH 2:24:39 ORVAL   VE3 18 1535
518 LOEFFLER MARIE CLAIR 2:28:23 RC NAMUR   AI2 10 1648